• Join FlightAware (Why Join?)
  • Login
  • US Flag 
Gobble Gobble! 
07:35PM EST


 

Airport Tracker/Info


-or-


 

Live Flight TrackerFlight Track Log ✈ UAL4086 ✈ 25-Apr-2013 ✈ KIAH - KSAT

Flight Track Log - Related Links

Times and Time Zones

All times are in EDT time to prevent confusion due to time zone crossing. See the UAL4086 flight status page for this flight to view local times or setup timezone preferences in your user account.

Time Position Orientation Groundspeed Altitude Reporting Facility
EDT Latitude Longitude Course Direction KTS MPH feet Rate Location/Type
10:11AM 29.9617 -95.3436 247° West 174 200 700  Level Houston Center
10:12AM 29.9239 -95.3650 206° Southwest 232 267 2,200 1,860 Climbing Houston Center
10:13AM 29.8975 -95.4131 238° Southwest 262 302 3,700 2,580 Climbing Houston Center
10:13AM 29.8783 -95.4428 233° Southwest 258 297 5,100 2,400 Climbing Houston Center
10:14AM 29.8581 -95.4814 239° Southwest 259 298 6,200 2,100 Climbing Houston Center
10:15AM 29.8418 -95.7579 249° West  Level FlightAware Approximate
10:15AM 29.8389 -95.5653 255° West 272 313 8,800  Level Houston Center
10:16AM 29.8044 -95.8631 247° West  Level FlightAware Approximate
10:16AM 29.8269 -95.6700 263° West 275 316 10,900  Level Houston Center
10:17AM 29.8164 -95.7742 263° West 324 373 11,700 1,200 Climbing Houston Center
10:18AM 29.8067 -95.8814 264° West 338 389 13,400 1,500 Climbing Houston Center
10:19AM 29.7958 -95.9914 264° West 344 396 14,800 1,260 Climbing Houston Center
10:20AM 29.7850 -96.1139 264° West 348 400 16,100 1,200 Climbing Houston Center
10:21AM 29.7822 -96.2272 268° West 355 409 17,300 900 Climbing Houston Center
10:22AM 29.7911 -96.3422 275° West 361 415 18,000 840 Climbing Houston Center
10:23AM 29.7994 -96.4575 275° West 364 419 19,100 1,200 Climbing Houston Center
10:24AM 29.8100 -96.5969 275° West 365 420 20,600 1,260 Climbing Houston Center
10:25AM 29.8189 -96.7131 275° West 366 421 21,800 1,080 Climbing Houston Center
10:26AM 29.8272 -96.8297 275° West 368 423 22,900 660 Climbing Houston Center
10:27AM 29.8350 -96.9506 274° West 380 437 23,200 480 Climbing Houston Center
10:28AM 29.8450 -97.0747 275° West 391 450 23,900 360 Climbing Houston Center
10:29AM 29.8553 -97.2258 275° West 398 458 24,000 -420 Climbing Houston Center
10:30AM 29.8636 -97.3544 274° West 403 464 23,100 -1,860 Descending Houston Center
10:31AM 29.8722 -97.4808 275° West 400 460 20,200 -2,580 Descending Houston Center
10:32AM 29.8806 -97.6108 274° West 397 457 17,900 -2,640 Descending Houston Center
10:33AM 29.8903 -97.7544 275° West 388 447 14,800 -2,880 Descending Houston Center
10:34AM 29.8919 -97.7903 273° West 382 440 13,900 -1,980 Descending Houston Center
10:34AM 29.8922 -97.8711 270° West 369 425 12,800 -1,620 Descending Houston Center
10:35AM 29.8794 -97.9028 245° Southwest 359 413 12,300 -1,500 Descending Houston Center
10:35AM 29.8500 -97.9719 244° Southwest 348 400 11,300 -1,320 Descending Houston Center
10:36AM 29.8383 -97.9994 244° Southwest 322 371 11,000 -1,260 Descending Houston Center
10:36AM 29.8122 -98.0636 245° Southwest 292 336 10,000 -1,620 Descending Houston Center
10:37AM 29.7789 -98.1411 244° Southwest 271 312 8,200 -1,740 Descending Houston Center
10:38AM 29.7717 -98.1594 246° West 265 305 7,800 -1,920 Descending Houston Center
10:39AM 29.7442 -98.2233 244° Southwest 265 305 6,200 -900 Descending Houston Center
10:40AM 29.7097 -98.3067 245° Southwest 222 255 6,100 -60 Descending Houston Center
10:41AM 29.6856 -98.3611 243° Southwest 227 261 6,100  Level Houston Center
10:42AM 29.6578 -98.4267 244° Southwest 229 264 6,100  Level Houston Center
10:43AM 29.6750 -98.4944 286° West 226 260 6,100  Level Houston Center
10:44AM 29.7086 -98.5497 305° West 211 243 6,100  Level Houston Center
10:45AM 29.7411 -98.6036 305° West 184 212 6,100 -360 Level Houston Center
10:46AM 29.7211 -98.6589 247° West 180 207 5,400 -960 Descending Houston Center
10:47AM 29.6792 -98.6522 172° South 189 217 4,200 -1,200 Descending Houston Center
10:48AM 29.6392 -98.6133 140° Southeast 172 198 3,100 -660 Descending Houston Center
10:49AM 29.6106 -98.5722 129° Southeast 166 191 2,900 -240 Descending Houston Center